sat.trackr.live / text

‹ back to catalog

STARLINK-32432

NORAD 61257 · 2024-175Q

PAYLOAD ACTIVE UNKNOWN

§ Identity

Operator
Country
US
Launch date
2024-09-25
Launch site
AFWTR
Launch vehicle
Mass (kg)
RCS (m²)

Purposes: comms

External: N2YO · Heavens-Above · Gunter

§ Orbital elements

Epoch: 2026-05-25T04:14:41.301024Z

Period
94.11 min
Inclination
53.1596°
Eccentricity
0.0000927
Mean motion
15.30196393 rev/d
Perigee alt
474.6 km
Apogee alt
475.9 km
Semi-major
6,853.4 km
B*
-3.6407e-5
RAAN
198.8005°
Arg perigee
98.3688°
Mean anomaly
261.7418°
Rev number
9,316

§ Raw data

STARLINK-324321 61257U 24175Q   26145.17686691 -.00001437  00000+0 -36407-4 0  99922 61257  53.1596 198.8005 0000927  98.3688 261.7418 15.30196393 93161

JSON: /api/v1/satellites/61257 · /tle

For live sub-satellite position, see the globe view (requires WebGL).

§ Visibility from observer

Set your observer location to see the next 7 days of passes ≥ 10°. The values pass through the URL so the page stays shareable.

No JS? Fill the form by hand. The geolocation button needs JavaScript.